Lapse_Rate
6.1 6.2 6.1 6.2 6.1 6.2 6.2 6.3 6.3 6.3 6.3 6.3 6.5 6.7 6.8 6.8 7.0 7.3 7.5 7.5 7.6 7.6 7.5 7.5 7.8 8.2 8.2 8.4 7.8 8.2 8.4 8.4 9.3 9.1 8.4 8.2 8.8 8.0 8.7 8.4 8.6 8.5 7.7 7.2 7.6
6.2 6.2 6.2 6.2 6.1 6.2 6.3 6.3 6.3 6.4 6.3 6.4 6.4 6.6 6.8 6.9 7.0 7.4 7.4 7.6 7.6 7.6 7.6 7.6 7.7 7.9 8.2 8.0 8.3 8.4 8.4 9.1 9.7 9.7 9.5 8.5 8.2 7.9 9.0 8.8 9.1 7.9 7.6 7.8 7.5
6.2 6.1 6.2 6.2 6.1 6.1 6.2 6.2 6.3 6.4 6.4 6.4 6.4 6.5 6.7 6.9 7.1 7.3 7.5 7.6 7.6 7.6 7.6 7.7 7.0 7.3 7.7 8.2 8.6 8.8 8.6 9.4 9.6 9.7 9.7 9.4 9.5 9.3 8.0 8.1 8.6 7.6 7.9 7.8 7.1
6.1 6.1 6.2 6.2 6.2 6.1 6.1 6.2 6.3 6.4 6.4 6.4 6.4 6.5 6.6 6.6 6.6 6.7 7.3 7.5 7.6 7.6 7.7 7.8 7.2 7.6 7.8 8.1 8.6 9.0 8.9 9.5 9.8 9.6 9.3 9.3 9.5 9.6 8.0 9.0 7.9 6.7 8.4 7.8 7.2
6.0 6.0 6.0 6.1 6.1 6.1 6.1 6.1 6.1 6.2 6.3 6.4 6.5 6.4 6.5 6.6 6.6 6.8 7.0 7.4 7.6 7.6 7.7 7.5 7.3 7.7 8.0 8.4 8.8 9.1 9.0 9.5 9.7 9.7 8.8 8.9 9.2 9.6 9.3 8.9 8.3 7.6 7.9 7.8 7.5
5.9 5.9 5.9 5.9 6.0 6.1 6.1 6.1 6.1 6.2 6.2 6.3 6.4 6.4 6.5 6.7 6.0 6.5 6.9 7.2 7.5 7.6 7.7 7.1 7.5 7.9 8.3 8.7 9.5 9.6 9.4 9.0 9.4 9.7 9.6 8.9 9.0 9.5 8.9 7.7 8.3 8.4 8.4 7.8 7.4
5.9 5.9 6.0 6.0 6.0 6.0 6.0 6.0 6.1 6.2 6.2 6.2 6.3 6.3 6.5 6.6 6.2 6.0 6.8 7.0 7.2 7.4 7.4 7.1 7.6 8.0 8.2 8.4 8.8 9.1 9.1 8.9 8.9 9.2 9.3 9.7 9.1 9.3 9.6 9.1 8.2 9.2 8.9 8.3 7.4
6.0 6.1 6.1 6.1 6.1 6.1 6.0 6.0 6.1 6.2 6.2 6.2 6.2 6.2 6.7 6.2 6.5 6.4 6.5 6.9 7.1 7.2 6.8 7.2 7.4 7.6 7.8 8.3 8.8 8.7 8.8 8.8 9.2 9.1 8.8 8.7 8.7 9.1 9.6 9.4 9.2 9.4 8.9 8.5 7.6
6.2 6.2 6.3 6.3 6.3 6.3 6.3 6.1 6.1 6.1 6.1 6.2 6.2 6.2 6.7 6.5 6.7 6.3 6.2 6.5 6.6 6.5 6.7 7.0 7.2 7.3 7.7 8.1 8.5 8.7 8.9 9.4 9.6 9.6 9.4 8.9 8.6 9.4 9.7 9.5 9.4 9.4 8.9 9.0 8.6
6.3 6.4 6.4 6.5 6.5 6.5 6.4 6.4 6.3 6.1 6.1 6.1 6.2 6.3 6.5 6.8 6.4 6.8 6.3 6.3 6.5 6.5 6.7 7.0 6.9 7.2 7.7 8.2 8.6 9.6 9.6 9.7 9.7 9.6 9.3 9.3 9.1 9.4 9.7 9.7 9.5 9.4 9.4 9.6 9.0
6.2 6.3 6.4 6.6 6.6 6.6 6.5 6.5 6.3 6.1 6.3 6.4 5.9 6.2 6.3 6.5 6.5 6.4 6.4 6.3 6.5 6.4 6.8 7.0 7.2 7.6 8.1 8.4 8.9 9.5 9.6 9.7 9.7 9.7 9.6 9.6 9.6 9.6 9.8 9.7 9.5 9.5 9.3 9.1 8.7
6.0 6.1 6.3 6.5 6.6 6.6 6.5 6.3 6.5 6.0 6.6 6.7 6.4 6.3 6.2 6.4 6.3 6.4 6.5 6.4 6.6 6.8 6.9 7.3 7.2 7.9 8.4 8.7 9.5 9.5 9.5 9.5 9.6 9.7 9.5 9.7 9.6 9.7 9.7 9.7 9.7 9.6 9.3 8.8 8.6
6.1 6.1 6.0 6.3 6.4 6.5 6.5 6.5 6.3 6.1 6.3 7.4 7.2 7.0 6.5 6.4 6.3 6.4 6.5 6.7 6.8 6.9 7.2 7.4 7.9 8.2 8.5 8.6 8.8 8.5 8.6 9.0 9.4 9.7 9.6 9.5 9.0 9.1 9.6 9.7 9.5 9.0 8.8 8.5 8.3
6.1 6.2 6.2 6.0 6.3 6.1 5.9 6.5 6.4 6.4 6.1 7.3 7.3 6.9 6.5 6.5 6.3 6.7 6.7 6.8 6.9 7.1 7.4 7.5 8.0 9.2 8.4 8.5 8.3 8.3 8.6 8.9 9.0 9.6 9.7 9.6 9.6 9.6 9.6 9.6 9.4 8.6 7.7 8.5 7.3
6.1 6.2 6.1 6.3 6.1 6.1 6.3 6.1 6.3 6.4 7.1 7.8 7.3 7.1 7.1 6.7 7.5 7.3 7.0 6.9 7.1 7.5 7.6 7.7 8.1 8.5 8.1 8.2 8.3 8.3 8.8 9.5 9.2 9.2 9.7 9.5 9.7 9.7 9.7 9.3 8.7 7.8 7.5 7.8 8.0
5.9 6.1 6.1 6.3 6.2 6.2 6.2 6.2 6.2 5.9 7.2 8.2 7.5 7.4 7.4 7.0 7.2 7.6 7.2 7.1 7.2 7.6 7.9 8.0 8.5 9.0 8.4 8.2 8.2 8.4 8.6 8.5 8.8 8.9 9.5 8.9 9.6 9.6 9.6 9.6 8.7 7.4 7.5 7.9 8.0
5.8 5.9 6.1 6.1 6.0 6.4 6.3 6.0 6.0 6.4 8.2 8.8 8.1 7.7 7.7 7.5 7.4 7.7 7.1 7.2 7.1 7.3 7.5 7.9 8.1 8.9 8.3 8.2 8.2 8.3 8.5 8.3 8.6 9.1 8.9 9.3 9.7 9.6 9.2 9.0 8.3 8.2 8.1 8.0 7.9
5.7 5.7 5.8 6.1 5.9 6.1 6.0 5.8 5.9 7.1 7.8 8.4 8.4 8.1 7.9 8.1 7.6 7.8 7.8 7.4 7.3 7.6 8.1 8.2 8.5 8.3 8.1 7.9 8.4 8.4 8.5 8.5 9.2 9.5 9.9 9.5 9.8 9.7 9.0 8.4 7.6 8.1 8.3 8.0 7.9
5.7 5.7 6.0 5.9 5.8 5.9 5.8 5.3 6.3 7.0 7.9 8.3 9.0 8.1 8.5 8.4 8.3 8.0 8.2 7.8 7.9 7.6 7.9 8.5 8.7 9.4 8.7 8.2 8.5 9.1 8.3 8.4 9.2 9.2 9.6 9.3 9.2 9.1 8.6 8.2 7.7 7.5 8.1 7.9 8.0
5.4 5.5 5.9 5.2 6.0 5.7 5.4 5.3 6.3 6.9 7.7 7.7 7.9 8.0 8.3 8.9 8.7 8.6 8.3 8.1 8.0 8.0 8.0 8.2 9.0 9.7 9.7 9.4 8.3 8.9 9.4 9.1 9.1 9.1 8.8 9.6 9.5 9.3 8.8 8.0 7.7 7.5 8.2 8.1 7.9
5.2 5.4 4.6 5.1 5.7 5.2 4.7 5.2 5.7 6.7 7.3 7.4 7.5 7.7 8.2 8.8 9.6 9.6 8.8 8.6 8.4 8.3 8.3 8.3 8.9 9.2 9.7 9.6 8.6 8.4 8.6 9.4 9.5 9.6 9.4 9.1 9.4 9.1 8.6 8.5 8.3 7.8 7.3 7.9 7.9
4.9 5.0 4.1 4.5 5.1 5.0 4.7 5.2 5.9 6.2 6.9 7.3 7.2 7.3 7.4 7.9 8.6 9.6 9.6 9.4 9.3 8.7 8.6 8.4 8.8 8.7 9.3 9.7 9.5 9.5 9.4 9.1 9.2 9.3 9.5 9.4 9.1 8.8 8.9 8.6 8.2 8.3 7.3 7.4 7.8
4.6 4.8 4.0 4.3 4.2 4.8 5.0 5.3 5.7 6.1 6.5 6.9 7.1 6.9 7.3 7.7 7.9 8.4 9.0 9.5 9.7 9.5 8.7 9.2 8.9 8.8 8.7 9.4 9.7 8.9 8.8 9.7 9.2 9.3 9.3 9.4 9.2 9.4 9.2 9.0 8.9 8.7 8.1 7.5 8.0
4.6 4.2 4.8 3.8 4.6 4.3 4.7 5.1 5.5 6.0 6.2 6.9 7.0 7.3 7.4 7.4 7.6 7.9 8.1 8.7 9.6 9.6 9.0 9.3 9.4 8.6 8.3 9.0 9.4 9.0 8.8 9.6 9.7 9.3 9.0 9.1 9.2 9.2 8.9 8.5 8.5 8.5 8.2 7.3 7.9
4.5 4.2 4.4 4.7 4.5 4.7 4.8 4.8 5.2 5.9 6.8 7.2 7.2 7.1 7.2 7.4 7.5 7.9 8.2 8.5 9.3 9.6 8.6 8.8 8.4 8.5 8.3 8.5 9.2 9.3 8.9 9.0 9.2 9.4 9.4 9.4 9.1 8.4 8.6 8.4 8.3 6.5 7.6 7.7 7.8
4.6 3.7 4.2 4.5 4.5 4.6 4.5 4.8 5.5 6.0 7.0 7.5 7.6 7.3 7.6 7.4 7.5 7.7 8.2 8.5 8.7 9.2 8.6 8.8 8.1 8.2 8.3 8.4 8.8 9.1 9.4 9.3 9.2 9.1 9.6 9.4 9.2 8.6 8.0 8.2 7.6 7.5 7.6 7.1 6.5
3.4 3.6 3.8 4.5 4.7 5.0 5.3 5.4 6.0 6.1 6.9 7.2 7.7 8.1 7.9 7.1 7.7 7.7 8.0 8.7 8.5 8.1 8.6 8.4 8.2 8.3 8.2 8.4 8.8 9.1 9.1 9.7 9.2 9.5 9.4 9.3 8.5 7.7 7.9 7.6 7.2 7.2 7.8 7.4 6.8
Wind_Speed
22 22 22 22 22 22 22 22 21 20 18 17 17 16 14 14 16 7 13 8 7 14 5 11 13 16 18 17 18 19 13 15 23 4 10 19 8 31 33 12 8 14 20 20 18
23 23 23 23 23 22 23 22 22 20 19 18 17 16 13 11 11 19 20 12 14 11 11 15 15 15 13 18 15 17 13 23 12 2 18 3 14 32 6 12 14 18 23 21 18
22 23 23 23 24 24 24 23 23 22 20 18 16 15 11 10 10 12 5 23 18 14 15 19 14 16 17 16 19 18 17 21 15 3 11 17 16 7 26 16 10 21 22 19 17
23 23 24 25 25 25 25 25 24 23 21 19 16 13 9 5 5 7 14 15 16 13 13 17 16 16 16 18 20 20 20 20 21 8 7 14 13 13 21 20 24 32 28 17 15
23 24 25 26 26 26 26 25 25 24 22 18 13 9 6 9 16 11 14 14 12 12 16 16 14 14 17 18 20 19 20 20 16 9 8 16 14 11 27 22 30 34 23 16 13
24 25 27 28 28 27 27 27 26 24 22 16 9 5 6 14 4 19 13 13 13 16 17 18 13 14 16 19 18 16 18 17 22 12 11 14 15 12 20 18 21 31 26 17 16
23 25 28 29 29 29 29 29 27 24 20 14 7 6 12 18 5 5 11 14 15 16 15 15 15 16 10 15 16 14 14 13 19 12 18 13 14 16 14 30 37 13 12 17 16
24 26 28 30 30 31 31 31 28 22 15 7 7 8 8 12 20 10 11 13 14 15 16 12 14 11 16 16 12 13 13 15 17 18 17 14 16 18 14 7 13 14 14 14 17
26 28 30 31 33 32 33 34 27 16 9 5 6 9 12 1 12 11 14 15 16 13 12 10 6 13 15 14 14 14 13 19 20 19 11 11 16 21 16 11 9 7 14 14 12
27 29 31 33 34 34 36 35 9 7 6 9 12 8 16 14 14 16 15 15 12 11 12 9 7 13 15 14 13 16 18 13 15 13 11 15 14 19 3 10 13 12 9 10 16
27 30 33 35 36 34 18 4 4 5 12 14 10 12 3 17 8 17 17 16 13 13 15 15 12 15 18 17 20 21 15 12 15 12 12 14 10 14 12 11 8 11 12 10 19
28 30 34 37 38 38 11 8 7 8 12 18 24 22 19 6 9 13 18 17 16 17 17 15 17 19 18 17 17 17 11 16 15 6 8 8 12 14 12 10 10 8 13 15 19
27 29 34 39 42 15 10 6 9 12 8 15 24 23 22 14 15 16 20 21 18 19 19 19 20 21 19 17 10 11 13 15 16 13 9 7 13 17 19 13 3 3 10 14 18
27 28 32 42 11 11 6 10 11 9 6 9 14 21 24 18 19 17 22 21 17 20 21 20 22 17 15 17 10 14 16 15 16 15 12 16 13 16 19 14 10 6 9 11 11
25 26 27 22 12 7 11 14 11 7 6 9 11 3 18 25 4 24 19 20 24 20 14 21 23 20 14 15 12 16 15 13 16 15 15 19 11 12 11 16 13 13 9 6 10
28 27 25 14 7 15 17 12 8 6 9 8 9 9 18 23 24 13 22 22 20 23 20 21 20 17 20 16 16 15 11 13 8 11 13 17 16 16 11 14 15 14 10 8 10
30 32 19 15 6 18 15 7 6 8 7 8 12 12 18 19 23 22 21 24 21 20 22 21 22 19 12 12 15 15 10 8 11 11 13 17 17 14 12 22 21 18 14 12 11
31 39 12 14 13 14 7 7 11 11 22 10 4 10 17 18 21 24 21 22 25 24 15 19 18 22 14 18 17 17 15 11 11 11 8 14 15 9 15 18 20 18 16 15 14
37 8 10 11 18 9 7 12 8 15 15 14 10 14 16 18 16 24 22 22 24 25 22 17 22 17 25 14 20 17 15 19 17 17 13 4 9 11 14 14 18 19 16 16 14
10 10 12 18 12 7 9 21 16 23 24 14 14 14 17 18 21 19 25 22 23 25 22 21 19 17 18 21 19 20 16 14 10 12 14 12 14 10 18 16 16 17 16 15 14
6 5 5 15 7 8 13 18 22 27 28 22 15 19 21 21 19 21 22 24 23 25 23 22 17 16 16 14 19 13 16 15 10 10 10 10 3 11 12 11 14 16 18 15 15
7 5 9 7 7 8 16 21 20 25 24 22 21 20 21 23 24 21 24 22 22 22 25 21 10 12 21 19 19 19 19 19 9 13 10 9 2 1 14 15 16 15 20 19 16
4 9 6 7 8 12 19 24 25 25 25 27 23 19 19 22 21 19 22 18 19 18 20 16 14 11 17 15 13 15 21 14 11 10 11 9 9 6 2 10 15 13 20 17 16
5 5 7 9 12 18 20 21 22 24 26 27 26 22 21 22 21 21 22 19 17 15 7 7 10 15 12 17 15 19 18 17 14 11 13 14 14 8 9 2 7 8 21 18 14
4 6 9 5 11 11 15 18 23 22 22 22 24 26 21 21 23 23 21 21 20 5 4 4 11 15 20 23 18 17 20 20 19 14 12 11 7 8 5 9 14 22 13 16 13
5 6 8 11 15 17 14 18 22 25 27 22 25 22 23 22 22 21 22 20 14 13 14 10 10 14 19 21 21 21 19 23 20 20 19 16 14 11 14 14 17 22 10 16 13
5 11 5 8 13 12 14 19 18 21 26 26 25 22 25 26 22 20 21 15 19 3 13 15 12 14 19 21 21 21 21 15 15 19 16 15 14 11 12 15 9 3 3 13 15
Wind_Direction
0 358 355 352 347 343 341 339 335 333 328 325 319 313 313 313 301 243 247 233 243 178 192 254 222 244 245 258 264 267 271 269 278 127 183 231 227 304 162 153 164 80 105 114 136
357 354 351 348 344 339 336 335 331 328 325 321 315 309 312 321 278 265 244 169 148 171 230 235 226 233 246 248 245 248 254 260 336 252 142 150 192 224 150 138 138 107 113 125 146
354 350 347 344 340 337 333 330 328 326 323 316 311 304 311 304 278 250 186 170 160 181 235 232 240 229 246 252 253 244 248 272 288 329 342 195 215 100 272 40 21 325 137 144 150
351 348 344 341 337 334 330 327 325 323 318 311 306 301 309 259 284 86 137 150 162 197 226 250 242 253 246 253 252 256 256 267 277 63 302 289 310 167 154 116 103 279 264 153 159
348 346 342 338 334 330 326 323 321 318 313 305 298 290 270 232 253 134 154 153 172 197 216 234 231 237 246 244 251 246 264 266 276 284 273 295 299 302 139 135 174 218 255 150 176
346 343 339 335 330 327 324 321 317 313 308 298 282 252 241 258 205 152 173 168 193 194 218 239 236 240 253 252 265 250 244 267 269 271 243 259 276 280 99 35 282 200 224 164 173
343 339 336 333 329 325 322 319 315 310 304 295 234 231 260 244 338 175 171 192 200 205 229 240 254 262 255 275 271 269 271 278 250 259 259 258 258 263 161 188 218 157 165 163 175
342 338 334 330 326 324 321 317 312 306 297 279 201 231 261 240 251 232 195 195 209 212 237 262 245 282 267 275 274 262 255 259 245 230 251 245 259 247 228 175 199 196 179 184 182
341 337 332 328 324 323 320 312 305 292 268 209 210 224 254 170 222 202 212 203 205 214 231 269 240 244 256 251 262 234 243 236 257 200 221 205 257 265 229 208 210 241 221 189 191
340 336 332 327 323 323 321 301 270 297 227 204 263 248 241 224 206 219 215 216 203 213 222 221 236 238 239 242 238 234 217 252 251 169 192 220 232 264 250 186 216 219 267 231 189
339 335 331 326 322 321 333 317 219 201 232 233 202 223 112 226 171 197 204 210 195 210 215 204 221 226 233 231 250 271 303 268 250 180 178 243 229 256 254 216 243 244 239 356 40
337 334 330 325 320 316 293 279 42 324 292 257 248 251 256 221 206 221 198 201 200 210 213 227 225 239 242 250 245 258 279 283 294 192 165 237 274 268 251 270 191 239 46 46 80
335 335 330 325 318 301 304 339 320 322 272 270 231 230 229 214 225 205 204 205 207 216 215 227 227 217 246 250 237 267 266 261 275 281 172 212 263 274 262 237 179 56 37 55 113
332 333 332 331 303 335 307 8 316 347 279 251 201 215 215 206 228 234 203 209 223 221 226 232 242 259 210 243 232 241 245 256 268 264 265 200 247 238 239 201 205 120 68 38 87
328 328 330 322 308 300 349 323 327 280 280 102 174 151 198 201 203 207 213 208 223 220 221 230 232 239 209 248 228 256 260 284 232 262 271 271 271 259 272 164 165 101 82 61 65
322 322 329 314 239 266 282 319 286 235 237 166 150 199 203 196 220 209 209 205 229 239 239 244 246 223 246 218 242 249 242 264 286 255 251 250 266 264 177 178 123 111 118 124 97
317 312 306 287 250 345 326 285 238 235 239 191 189 205 215 200 212 237 193 202 213 220 235 234 240 248 215 239 228 227 224 241 233 233 242 238 235 253 108 130 135 141 144 134 125
318 307 267 237 248 257 278 242 241 261 233 306 257 223 208 214 207 223 199 215 210 225 228 229 226 234 181 226 232 211 225 238 235 223 253 253 233 208 125 114 133 143 146 141 146
316 296 259 230 220 231 239 224 229 232 287 304 242 248 230 221 213 216 219 210 219 219 227 238 232 224 223 201 235 197 218 245 267 286 288 235 76 115 123 138 138 142 152 150 137
318 295 259 243 174 206 228 235 248 249 283 302 280 274 243 229 220 211 222 217 229 219 223 246 264 248 221 203 220 250 214 221 238 259 275 254 185 223 162 156 156 157 155 144 138
270 266 86 133 149 219 234 237 246 259 275 276 255 270 275 282 231 226 227 225 211 225 219 230 252 259 218 197 211 216 243 254 237 236 237 273 154 93 136 179 170 167 151 151 154
281 258 127 167 220 234 240 250 258 269 273 254 268 254 277 289 291 267 223 238 222 210 227 212 237 238 257 213 212 236 218 232 242 239 260 278 187 263 188 188 178 191 154 152 153
266 258 210 207 246 248 256 258 249 254 253 263 246 243 261 273 281 280 278 232 237 207 217 207 219 229 256 261 213 219 245 223 232 267 270 264 270 134 96 179 176 193 145 144 144
285 272 210 202 250 268 280 281 273 254 245 255 257 251 239 254 259 268 273 270 255 201 216 240 209 217 238 243 209 213 229 239 220 212 230 244 269 177 177 102 26 238 132 138 149
244 255 287 279 223 244 254 262 273 267 258 244 250 250 245 242 253 249 250 261 253 144 176 180 225 214 226 255 268 208 222 229 235 235 248 254 257 140 82 73 55 320 109 139 158
297 334 331 298 292 281 275 271 267 262 271 251 245 245 252 247 236 248 242 249 270 182 195 214 227 227 236 236 247 260 235 212 222 230 222 229 254 163 143 145 184 221 163 154 152
291 315 279 277 273 271 263 264 279 313 272 274 276 228 245 247 244 255 259 279 304 181 245 204 200 212 233 237 251 249 248 243 220 224 221 221 103 57 163 190 184 82 8 148 151